2024-247AC

Last updated on Tue Jan 21 2025 00:02:04 GMT+0000 (Coordinated Universal Time)

1 62403U 24247AC 25020.52946962 .00023308 00000+0 11073-2 0 9995 2 62403 44.9907 199.1569 0005005 265.4341 94.5967 15.18881023 4714
UTC large
Height (km)
Speed (km/s)
/
Latitude / Longitude
Inclination (degrees)
Orbital Period (minutes)
Azimuth
Elevation
Range (km)
Doppler Factor

Next 0 passes for location: London (51.5072 / 0.1276)

Sorry there are no passes over London.